USA 157 (MILSTAR-2 2)

Last updated on Tue Sep 16 2025 00:02:45 GMT+0000 (Coordinated Universal Time)

1 26715U 01009A 25258.36545966 .00000098 00000+0 00000+0 0 9992 2 26715 11.2390 21.3886 0043551 181.9779 132.8101 1.00277036 30181
UTC large
Height (km)
Speed (km/s)
/
Latitude / Longitude
Inclination (degrees)
Orbital Period (minutes)
Azimuth
Elevation
Range (km)
Doppler Factor

Next 0 passes for location: London (51.5072 / 0.1276)

Sorry there are no passes over London.